Retour au catalogue

STARLINK-37951

ActifCommunicationsSSO
NORAD 69684·PAYLOAD·🇺🇸 United States

Lancé Jun 25, 2026 depuis Vandenberg Space Force Base

Loading…

Prochains Passages (prochaines 24 heures)

TLE

FraisSource: CelesTrak SupGP

Époque: Sep 14, 2026, 22:43 UTC

1 69684C 26145H   26257.94701389  .00078794  00000+0  52956-3 0  2575
2 69684  97.2841 107.8284 0001290 105.0551  42.7455 15.75141453    19

Suivez STARLINK-37951 en temps réel avec AllMySat

Download on the App Store